TimeWET,TemperatureF,Dew PointF,Humidity,Sea Level PressureIn,VisibilityMPH,Wind Direction,Wind SpeedMPH,Gust SpeedMPH,PrecipitationIn,Events,Conditions,WindDirDegrees,DateUTC
12:00 AM,56,54,93,29.99,3,Calm,Calm,,,,Scattered Clouds,,2012-11-16 00:00:00
12:00 AM,55.4,55.4,100,29.98,3.1,Calm,Calm,-,N/A,,Partly Cloudy,0,2012-11-16 00:00:00
12:30 AM,55.4,55.4,100,29.98,3.1,SE,4.6,-,N/A,,Partly Cloudy,130,2012-11-16 00:30:00
1:00 AM,55.4,53.6,94,29.95,-9999.0,SE,4.6,-,N/A,,Unknown,130,2012-11-16 01:00:00
1:30 AM,55.4,53.6,94,29.95,3.1,SE,3.5,-,N/A,,Partly Cloudy,140,2012-11-16 01:30:00
2:00 AM,55.4,53.6,94,29.95,3.1,SE,5.8,-,N/A,,Partly Cloudy,130,2012-11-16 02:00:00
2:30 AM,55.4,53.6,94,29.95,3.1,SE,5.8,-,N/A,,Partly Cloudy,130,2012-11-16 02:30:00
3:00 AM,56,53,87,29.95,3,Calm,Calm,,,,Scattered Clouds,,2012-11-16 03:00:00
3:00 AM,55.4,53.6,94,29.92,3.1,Calm,Calm,-,N/A,,Partly Cloudy,0,2012-11-16 03:00:00
3:30 AM,55.4,53.6,94,29.95,3.1,Calm,Calm,-,N/A,,Partly Cloudy,0,2012-11-16 03:30:00
4:00 AM,55.4,53.6,94,29.92,3.1,Calm,Calm,-,N/A,,Partly Cloudy,0,2012-11-16 04:00:00
4:30 AM,55.4,53.6,94,29.92,3.1,Calm,Calm,-,N/A,,Partly Cloudy,0,2012-11-16 04:30:00
5:00 AM,55.4,53.6,94,29.92,3.1,SE,3.5,-,N/A,,Partly Cloudy,130,2012-11-16 05:00:00
5:30 AM,55.4,53.6,94,29.92,3.1,SE,5.8,-,N/A,,Partly Cloudy,140,2012-11-16 05:30:00
6:00 AM,54,53,94,29.94,3,SE,5.8,,,,Scattered Clouds,130,2012-11-16 06:00:00
6:00 AM,53.6,53.6,100,29.92,3.1,SE,5.8,-,N/A,,Partly Cloudy,130,2012-11-16 06:00:00
6:30 AM,53.6,53.6,100,29.92,3.1,SE,5.8,-,N/A,,Partly Cloudy,140,2012-11-16 06:30:00
7:00 AM,53.6,53.6,100,29.95,3.1,SE,1.2,-,N/A,,Partly Cloudy,140,2012-11-16 07:00:00
7:14 AM,53.6,51.8,94,29.95,2.5,Calm,Calm,-,N/A,,Scattered Clouds,0,2012-11-16 07:14:00
7:30 AM,53.6,51.8,94,29.95,2.5,SE,1.2,-,N/A,,Scattered Clouds,140,2012-11-16 07:30:00
8:00 AM,55.4,55.4,100,29.95,2.5,Variable,2.3,-,N/A,,Scattered Clouds,0,2012-11-16 08:00:00
8:17 AM,57.2,55.4,94,29.95,3.1,Calm,Calm,-,N/A,,Scattered Clouds,0,2012-11-16 08:17:00
8:30 AM,59.0,55.4,88,29.95,3.1,Calm,Calm,-,N/A,,Scattered Clouds,0,2012-11-16 08:30:00
9:00 AM,62,56,76,29.96,3,Calm,Calm,,,,Scattered Clouds,,2012-11-16 09:00:00
9:00 AM,60.8,57.2,88,29.95,3.1,Calm,Calm,-,N/A,,Scattered Clouds,0,2012-11-16 09:00:00
9:30 AM,64.4,55.4,73,29.95,3.1,South,4.6,-,N/A,,Scattered Clouds,170,2012-11-16 09:30:00
10:00 AM,66.2,55.4,68,29.95,3.1,South,5.8,-,N/A,,Scattered Clouds,170,2012-11-16 10:00:00
10:30 AM,69.8,55.4,60,29.95,3.1,South,3.5,-,N/A,,Scattered Clouds,180,2012-11-16 10:30:00
11:00 AM,69.8,53.6,56,29.95,3.7,South,5.8,-,N/A,,Scattered Clouds,170,2012-11-16 11:00:00
11:30 AM,71.6,55.4,57,29.92,3.7,SSW,6.9,-,N/A,,Scattered Clouds,210,2012-11-16 11:30:00
12:00 PM,72,55,45,29.92,5,SW,6.9,,,,Scattered Clouds,230,2012-11-16 12:00:00
12:00 PM,71.6,55.4,57,29.92,5.0,SW,6.9,-,N/A,,Scattered Clouds,230,2012-11-16 12:00:00
12:30 PM,73.4,55.4,53,29.89,5.0,SSW,8.1,-,N/A,,Scattered Clouds,200,2012-11-16 12:30:00
1:00 PM,73.4,55.4,53,29.89,5.0,SW,4.6,-,N/A,,Mostly Cloudy,220,2012-11-16 13:00:00
1:30 PM,73.4,51.8,47,29.89,5.0,SW,6.9,-,N/A,,Mostly Cloudy,220,2012-11-16 13:30:00
2:00 PM,73.4,53.6,50,29.86,5.0,SSW,6.9,-,N/A,,Mostly Cloudy,210,2012-11-16 14:00:00
2:30 PM,73.4,51.8,47,29.86,5.0,WSW,8.1,-,N/A,,Mostly Cloudy,240,2012-11-16 14:30:00
3:00 PM,71,58,55,29.87,5,WNW,5.8,,,,Scattered Clouds,300,2012-11-16 15:00:00
3:00 PM,71.6,59.0,64,29.86,5.0,WNW,5.8,-,N/A,,Mostly Cloudy,300,2012-11-16 15:00:00
3:30 PM,69.8,59.0,68,29.86,5.0,NW,2.3,-,N/A,,Mostly Cloudy,320,2012-11-16 15:30:00
4:00 PM,68.0,57.2,68,29.89,5.0,WNW,6.9,-,N/A,,Mostly Cloudy,300,2012-11-16 16:00:00
4:30 PM,68.0,59.0,73,29.89,5.0,Calm,Calm,-,N/A,,Mostly Cloudy,0,2012-11-16 16:30:00
5:00 PM,64.4,59.0,83,29.89,5.0,Calm,Calm,-,N/A,,Mostly Cloudy,0,2012-11-16 17:00:00
6:00 PM,61,57,84,29.89,3,Calm,Calm,,,,Partly Cloudy,,2012-11-16 18:00:00
6:00 PM,60.8,57.2,88,29.89,3.1,Calm,Calm,-,N/A,,Mostly Cloudy,0,2012-11-16 18:00:00
6:30 PM,62.6,57.2,82,29.89,3.1,SE,3.5,-,N/A,,Mostly Cloudy,140,2012-11-16 18:30:00
7:00 PM,60.8,57.2,88,29.89,3.1,Calm,Calm,-,N/A,,Mostly Cloudy,0,2012-11-16 19:00:00
7:30 PM,62.6,57.2,82,29.89,3.1,Calm,Calm,-,N/A,,Mostly Cloudy,0,2012-11-16 19:30:00
8:00 PM,60.8,55.4,82,29.89,3.1,Calm,Calm,-,N/A,,Mostly Cloudy,0,2012-11-16 20:00:00
8:14 PM,60.8,57.2,88,29.89,3.1,Calm,Calm,-,N/A,Thunderstorm,Thunderstorm,0,2012-11-16 20:14:00
8:30 PM,62.6,57.2,82,29.89,3.1,Calm,Calm,-,N/A,Thunderstorm,Thunderstorm,0,2012-11-16 20:30:00
9:00 PM,63,57,76,29.90,3,Calm,Calm,,,Thunderstorm,Thunderstorm,,2012-11-16 21:00:00
9:00 PM,62.6,57.2,82,29.89,3.1,Calm,Calm,-,N/A,Thunderstorm,Thunderstorm,0,2012-11-16 21:00:00
9:30 PM,62.6,57.2,82,29.89,3.1,South,8.1,-,N/A,Thunderstorm,Thunderstorm,180,2012-11-16 21:30:00
10:00 PM,64.4,55.4,73,29.89,3.1,South,6.9,-,N/A,Thunderstorm,Thunderstorm,190,2012-11-16 22:00:00
10:30 PM,64.4,55.4,73,29.89,3.1,SSW,9.2,-,N/A,Thunderstorm,Thunderstorm,200,2012-11-16 22:30:00
11:00 PM,62.6,55.4,77,29.89,3.1,SSW,8.1,-,N/A,Thunderstorm,Thunderstorm,210,2012-11-16 23:00:00
11:30 PM,64.4,53.6,68,29.89,3.1,SSW,9.2,-,N/A,Thunderstorm,Thunderstorm,200,2012-11-16 23:30:00